• In Portugal
  • List of Countries
  • For 7 days
  • Water Temperature
  • Satellite Maps
  • Weather Map
  • Weather Widgets
  • user-avatar
    Login

    Hourly Weather Basejn

    Today, 20 October, Friday

    Time Temperature Precipitation Wind Pressure Humidity
    00:00 +26°C° 0 mm 2 mps 757 mmHg 97%
    01:00 +26°C° 0.1 mm 2 mps 757 mmHg 97%
    02:00 +26°C° 0.1 mm 2 mps 757 mmHg 97%
    03:00 +26°C° 0.1 mm 2 mps 757 mmHg 97%
    04:00 +26°C° 0 mm 2 mps 757 mmHg 97%
    05:00 +26°C° 0 mm 2 mps 757 mmHg 97%
    06:00 +26°C° 0 mm 2 mps 757 mmHg 97%
    07:00 +27°C° 0 mm 3 mps 758 mmHg 92%
    08:00 +29°C° 0 mm 3 mps 758 mmHg 86%
    09:00 +30°C° 0 mm 3 mps 758 mmHg 81%
    10:00 +31°C° 0.6 mm 3 mps 758 mmHg 79%
    11:00 +33°C° 0.6 mm 3 mps 758 mmHg 76%
    12:00 +33°C° 0.6 mm 3 mps 758 mmHg 74%
    13:00 +33°C° 1.4 mm 3 mps 757 mmHg 76%
    14:00 +31°C° 1.4 mm 3 mps 756 mmHg 78%
    15:00 +31°C° 1.4 mm 3 mps 756 mmHg 79%
    16:00 +30°C° 0.4 mm 2 mps 756 mmHg 83%
    17:00 +29°C° 0.4 mm 2 mps 756 mmHg 87%
    18:00 +28°C° 0.4 mm 2 mps 756 mmHg 91%
    19:00 +27°C° 0.3 mm 2 mps 757 mmHg 92%
    20:00 +27°C° 0.3 mm 2 mps 757 mmHg 93%
    21:00 +27°C° 0.3 mm 1 mps 758 mmHg 94%
    22:00 +27°C° 0 mm 1 mps 758 mmHg 94%
    23:00 +26°C° 0 mm 1 mps 758 mmHg 95%

    Tomorrow, 21 October, Saturday

    Time Temperature Precipitation Wind Pressure Humidity
    00:00 +26°C° 0 mm 1 mps 757 mmHg 95%
    01:00 +26°C° 0 mm 1 mps 757 mmHg 95%
    02:00 +26°C° 0 mm 1 mps 756 mmHg 96%
    03:00 +26°C° 0 mm 1 mps 756 mmHg 96%
    04:00 +26°C° 0 mm 1 mps 756 mmHg 96%
    05:00 +26°C° 0 mm 1 mps 756 mmHg 96%
    06:00 +26°C° 0 mm 1 mps 757 mmHg 96%
    07:00 +28°C° 0.6 mm 1 mps 757 mmHg 91%
    08:00 +29°C° 0.6 mm 2 mps 758 mmHg 85%
    09:00 +31°C° 0.6 mm 2 mps 758 mmHg 80%
    10:00 +31°C° 1 mm 2 mps 758 mmHg 78%
    11:00 +32°C° 1 mm 2 mps 757 mmHg 77%
    12:00 +33°C° 1 mm 3 mps 757 mmHg 75%
    13:00 +33°C° 1.4 mm 3 mps 756 mmHg 77%
    14:00 +31°C° 1.4 mm 3 mps 755 mmHg 79%
    15:00 +31°C° 1.4 mm 3 mps 755 mmHg 81%
    16:00 +30°C° 0.5 mm 3 mps 755 mmHg 84%
    17:00 +29°C° 0.5 mm 2 mps 755 mmHg 88%
    18:00 +28°C° 0.5 mm 2 mps 755 mmHg 91%
    19:00 +28°C° 0 mm 2 mps 756 mmHg 92%
    20:00 +27°C° 0 mm 2 mps 756 mmHg 93%
    21:00 +27°C° 0 mm 2 mps 757 mmHg 94%
    22:00 +27°C° 0 mm 1 mps 757 mmHg 94%
    23:00 +27°C° 0 mm 1 mps 756 mmHg 95%

    Day after tomorrow, 22 October, Sunday

    Time Temperature Precipitation Wind Pressure Humidity
    00:00 +27°C° 0 mm 1 mps 756 mmHg 95%
    01:00 +27°C° 0.2 mm 1 mps 755 mmHg 95%
    02:00 +27°C° 0.2 mm 1 mps 755 mmHg 95%
    03:00 +26°C° 0.2 mm 1 mps 755 mmHg 96%
    04:00 +27°C° 0 mm 1 mps 755 mmHg 96%
    05:00 +27°C° 0 mm 1 mps 755 mmHg 96%
    06:00 +27°C° 0 mm 1 mps 755 mmHg 96%
    07:00 +28°C° 0 mm 1 mps 756 mmHg 90%
    08:00 +30°C° 0 mm 1 mps 757 mmHg 85%
    09:00 +31°C° 0 mm 1 mps 757 mmHg 79%
    10:00 +32°C° 0.5 mm 2 mps 757 mmHg 76%
    11:00 +32°C° 0.5 mm 2 mps 756 mmHg 73%
    12:00 +34°C° 0.5 mm 2 mps 755 mmHg 71%
    13:00 +32°C° 2.1 mm 2 mps 755 mmHg 74%
    14:00 +33°C° 2.1 mm 3 mps 754 mmHg 76%
    15:00 +33°C° 2.1 mm 3 mps 753 mmHg 79%
    16:00 +30°C° 0.9 mm 3 mps 754 mmHg 83%
    17:00 +29°C° 0.9 mm 2 mps 754 mmHg 87%
    18:00 +28°C° 0.9 mm 2 mps 754 mmHg 92%
    19:00 +28°C° 0 mm 2 mps 755 mmHg 92%
    20:00 +28°C° 0 mm 2 mps 756 mmHg 93%
    21:00 +28°C° 0 mm 2 mps 756 mmHg 94%
    22:00 +28°C° 0 mm 2 mps 756 mmHg 94%
    23:00 +27°C° 0 mm 1 mps 755 mmHg 95%

    23 October, Monday

    Time Temperature Precipitation Wind Pressure Humidity
    00:00 +27°C° 0 mm 1 mps 755 mmHg 95%
    01:00 +27°C° 0 mm 1 mps 755 mmHg 95%
    02:00 +27°C° 0 mm 1 mps 754 mmHg 95%
    03:00 +27°C° 0 mm 1 mps 754 mmHg 96%
    04:00 +27°C° 0 mm 1 mps 754 mmHg 96%
    05:00 +27°C° 0 mm 1 mps 755 mmHg 96%
    06:00 +27°C° 0 mm 1 mps 755 mmHg 96%
    07:00 +28°C° 0.5 mm 1 mps 756 mmHg 90%
    08:00 +30°C° 0.5 mm 1 mps 756 mmHg 84%
    09:00 +31°C° 0.5 mm 1 mps 757 mmHg 79%
    10:00 +32°C° 1.3 mm 1 mps 756 mmHg 77%
    11:00 +32°C° 1.3 mm 1 mps 756 mmHg 75%
    12:00 +32°C° 1.3 mm 1 mps 755 mmHg 73%
    13:00 +32°C° 1.6 mm 1 mps 754 mmHg 76%
    14:00 +32°C° 1.6 mm 2 mps 754 mmHg 78%
    15:00 +31°C° 1.6 mm 2 mps 753 mmHg 81%
    16:00 +30°C° 0.6 mm 2 mps 754 mmHg 84%
    17:00 +29°C° 0.6 mm 1 mps 755 mmHg 88%
    18:00 +29°C° 0.6 mm 1 mps 755 mmHg 91%
    19:00 +28°C° 0.3 mm 1 mps 756 mmHg 91%
    20:00 +28°C° 0.3 mm 1 mps 756 mmHg 92%
    21:00 +28°C° 0.3 mm 1 mps 757 mmHg 93%
    22:00 +28°C° 0 mm 1 mps 757 mmHg 93%
    23:00 +28°C° 0 mm 1 mps 756 mmHg 94%

    24 October, Tuesday

    Time Temperature Precipitation Wind Pressure Humidity
    00:00 +27°C° 0 mm 1 mps 756 mmHg 94%
    01:00 +27°C° 0 mm 1 mps 756 mmHg 94%
    02:00 +27°C° 0 mm 1 mps 756 mmHg 95%
    03:00 +27°C° 0 mm 1 mps 756 mmHg 95%
    04:00 +27°C° 0.7 mm 1 mps 756 mmHg 95%
    05:00 +27°C° 0.7 mm 1 mps 757 mmHg 94%
    06:00 +27°C° 0.7 mm 1 mps 757 mmHg 94%
    07:00 +28°C° 0.6 mm 1 mps 758 mmHg 90%
    08:00 +29°C° 0.6 mm 1 mps 758 mmHg 86%
    09:00 +30°C° 0.6 mm 1 mps 759 mmHg 82%
    10:00 +31°C° 0.5 mm 1 mps 758 mmHg 79%
    11:00 +31°C° 0.5 mm 1 mps 757 mmHg 76%
    12:00 +32°C° 0.5 mm 1 mps 757 mmHg 73%
    13:00 +32°C° 0 mm 2 mps 756 mmHg 73%
    14:00 +32°C° 0 mm 2 mps 756 mmHg 73%
    15:00 +32°C° 0 mm 2 mps 756 mmHg 73%
    16:00 +31°C° 0.5 mm 2 mps 756 mmHg 78%
    17:00 +30°C° 0.5 mm 2 mps 756 mmHg 83%
    18:00 +28°C° 0.5 mm 2 mps 757 mmHg 88%
    19:00 +28°C° 0.1 mm 1 mps 757 mmHg 89%
    20:00 +28°C° 0.1 mm 1 mps 758 mmHg 90%
    21:00 +27°C° 0.1 mm 1 mps 758 mmHg 91%
    22:00 +27°C° 0 mm 1 mps 758 mmHg 92%
    23:00 +27°C° 0 mm 1 mps 758 mmHg 92%

    25 October, Wednesday

    Time Temperature Precipitation Wind Pressure Humidity
    00:00 +27°C° 0 mm 1 mps 757 mmHg 93%
    01:00 +26°C° 0.2 mm 1 mps 757 mmHg 93%
    02:00 +26°C° 0.2 mm 1 mps 757 mmHg 93%
    03:00 +26°C° 0.2 mm 1 mps 757 mmHg 93%
    04:00 +26°C° 0 mm 1 mps 757 mmHg 93%
    05:00 +26°C° 0 mm 1 mps 758 mmHg 93%
    06:00 +26°C° 0 mm 1 mps 758 mmHg 93%
    07:00 +28°C° 0.1 mm 2 mps 759 mmHg 87%
    08:00 +29°C° 0.1 mm 2 mps 759 mmHg 81%
    09:00 +31°C° 0.1 mm 2 mps 760 mmHg 75%
    10:00 +31°C° 0.8 mm 2 mps 759 mmHg 74%
    11:00 +32°C° 0.8 mm 2 mps 759 mmHg 73%
    12:00 +34°C° 0.8 mm 2 mps 758 mmHg 72%
    13:00 +32°C° 2.4 mm 2 mps 758 mmHg 75%
    14:00 +31°C° 2.4 mm 2 mps 757 mmHg 78%
    15:00 +31°C° 2.4 mm 2 mps 757 mmHg 81%
    16:00 +30°C° 0.6 mm 1 mps 757 mmHg 84%
    17:00 +29°C° 0.6 mm 1 mps 758 mmHg 86%
    18:00 +28°C° 0.6 mm 1 mps 758 mmHg 88%
    19:00 +28°C° 0 mm 1 mps 758 mmHg 89%
    20:00 +27°C° 0 mm 1 mps 759 mmHg 90%
    21:00 +27°C° 0 mm 1 mps 759 mmHg 91%
    22:00 +27°C° 0 mm 1 mps 759 mmHg 91%
    23:00 +27°C° 0 mm 1 mps 758 mmHg 92%
    Show more